Location: Stara Lesna
(49.1528°N, 20.2911°E)
Time: 18:46:33
(UTC+02:00)

Abrixas rocket - Pass Details

Date: 13 July 2020
Orbit: 338 x 346 km, 48.4° (Epoch: 10 August)

Event Time Altitude Azimuth Distance (km) Brightness Sun altitude
Exits shadow 01:39:38 46° 102° (ESE) 463 2.4 -18.0°
Drops below altitude 10° 01:41:49 10° 89° (E) 1,282 4.9 -17.9°
Sets 01:43:49 0° 87° (E) 2,121 6.0 -17.8°
